EJU17CM LPPT-LFBD

Flight info

Callsign EJU17CM
Flight time N/A
Altitude 28000
Route IXIDA DCT TOSDI DCT ZMR N976 DGO L176 SSN P181 URUNA DCT BTZ DCT VAVIX
Aircraft A320/M-SDE3FGHIRWY/LB1

Departure

Time 2026-05-06 14:49
Airport Lisbon Humberto Delgado Airport (LPPT)

Arrival

Time N/A
Airport Bordeaux–Mérignac Airport (LFBD)
Time Latitude Longitude Altitude Speed Heading
2026-05-06 14:26 38.76935 -9.13081 355 ft 0 kts 78°
2026-05-06 14:40 38.76933 -9.13097 356 ft 2 kts 85°
2026-05-06 14:40 38.76932 -9.13103 352 ft 0 kts 85°
2026-05-06 14:40 38.76932 -9.13111 356 ft 2 kts 85°
2026-05-06 14:41 38.76931 -9.13133 355 ft 2 kts 121°
2026-05-06 14:41 38.76940 -9.13152 355 ft 2 kts 157°
2026-05-06 14:41 38.76948 -9.13156 357 ft 0 kts 191°
2026-05-06 14:41 38.76945 -9.13156 355 ft 2 kts 187°
2026-05-06 14:42 38.76943 -9.13156 355 ft 0 kts 169°
2026-05-06 14:43 38.76942 -9.13156 355 ft 1 kts 169°
2026-05-06 14:44 38.76920 -9.13150 350 ft 6 kts 169°
2026-05-06 14:44 38.76878 -9.13140 349 ft 6 kts 168°
2026-05-06 14:44 38.76835 -9.13127 351 ft 9 kts 167°
2026-05-06 14:45 38.76774 -9.13208 347 ft 10 kts 261°
2026-05-06 14:45 38.76760 -9.13297 353 ft 11 kts 257°
2026-05-06 14:45 38.76732 -9.13392 353 ft 11 kts 232°
2026-05-06 14:45 38.76673 -9.13446 347 ft 10 kts 217°
2026-05-06 14:46 38.76648 -9.13525 349 ft 10 kts 259°
2026-05-06 14:46 38.76633 -9.13622 350 ft 12 kts 258°
2026-05-06 14:46 38.76615 -9.13729 355 ft 13 kts 259°
2026-05-06 14:46 38.76595 -9.13848 348 ft 14 kts 257°
2026-05-06 14:47 38.76573 -9.13979 349 ft 15 kts 256°
2026-05-06 14:47 38.76509 -9.14092 352 ft 15 kts 236°
2026-05-06 14:47 38.76502 -9.14195 349 ft 11 kts 289°
2026-05-06 14:47 38.76538 -9.14295 348 ft 14 kts 294°
2026-05-06 14:48 38.76574 -9.14403 335 ft 11 kts 303°
2026-05-06 14:48 38.76642 -9.14391 334 ft 11 kts 23°
2026-05-06 14:48 38.76792 -9.14312 338 ft 50 kts 22°
2026-05-06 14:48 38.77312 -9.14033 345 ft 110 kts 22°
2026-05-06 14:49 38.78176 -9.13569 346 ft 158 kts 22°
2026-05-06 14:49 38.79224 -9.13009 831 ft 159 kts 17°
2026-05-06 14:49 38.80228 -9.12425 1528 ft 159 kts 19°
2026-05-06 14:49 38.81269 -9.11796 1986 ft 173 kts 20°
2026-05-06 14:50 38.82387 -9.11064 2367 ft 189 kts 26°
2026-05-06 14:50 38.83532 -9.10153 2778 ft 203 kts 30°
2026-05-06 14:50 38.84812 -9.09145 3068 ft 228 kts 26°
2026-05-06 14:50 38.86243 -9.08057 3572 ft 248 kts 29°
2026-05-06 14:51 38.87755 -9.06907 4335 ft 256 kts 29°
2026-05-06 14:51 38.89293 -9.05716 5130 ft 261 kts 32°
2026-05-06 14:51 38.90708 -9.04216 5758 ft 267 kts 41°
2026-05-06 14:51 38.92158 -9.02719 5931 ft 267 kts 27°